Theta_e
321 322 322 322 322 323 322 322 322 322 322 321 320 320 319 319 319 319 318 318 318 317 316 316 315 314 313 312 311 310 308 308 305 304 303 303 303 302 302 301 301 301
321 322 322 322 322 322 322 322 322 321 320 320 320 320 319 318 318 317 317 316 316 316 316 315 315 313 312 311 310 308 307 307 305 305 303 302 302 302 301 301 301 301
320 320 320 319 319 320 320 320 321 320 319 319 319 318 318 317 316 315 315 315 314 314 314 314 313 312 311 310 310 308 307 306 305 304 303 303 302 301 301 302 301 300
319 319 319 318 318 318 318 318 318 318 318 317 316 316 315 315 314 314 314 311 313 313 313 313 312 312 311 310 309 308 307 306 306 305 303 303 302 301 301 301 300 299
317 317 317 317 318 317 317 317 316 316 315 315 315 314 313 313 313 312 312 312 311 311 311 312 312 311 310 309 308 307 306 306 305 304 303 302 301 300 300 299 298 297
316 316 316 316 316 316 315 315 315 315 314 314 314 314 313 312 312 311 311 311 311 310 310 310 310 310 310 308 307 307 305 305 304 304 302 301 300 300 300 298 297 297
314 314 314 314 314 314 314 314 314 314 314 314 314 313 312 311 310 310 310 310 310 310 310 309 309 309 309 308 307 306 305 305 305 303 301 299 297 297 297 298 297 297
313 313 313 313 312 312 312 312 312 312 312 312 311 311 311 310 309 310 309 309 309 309 309 309 309 309 309 308 306 305 304 305 304 301 299 299 297 297 296 297 295 295
312 311 311 311 310 310 310 310 310 310 310 310 309 309 310 309 309 309 308 308 308 308 308 308 308 308 308 307 306 305 304 303 303 300 298 297 296 296 296 296 295 295
310 310 309 309 308 309 309 309 309 309 309 308 308 308 308 308 308 307 307 307 307 306 306 306 307 307 307 306 306 305 305 303 300 299 299 298 297 297 296 296 295 295
308 308 307 307 307 308 307 308 308 307 307 307 307 306 306 306 306 306 305 305 305 305 305 305 305 305 305 306 305 305 304 304 302 301 300 299 298 298 295 296 296 295
306 306 306 306 306 306 306 307 306 306 306 306 305 305 305 305 304 304 303 302 303 304 304 304 305 304 304 304 304 304 303 303 302 301 300 299 298 298 298 297 297 296
305 305 305 305 305 305 305 305 304 304 303 303 303 303 302 302 302 301 301 301 301 302 302 303 303 303 304 303 303 303 302 301 301 301 300 300 299 298 298 298 297 297
304 304 304 304 304 304 303 302 302 301 301 302 301 300 300 300 300 300 300 300 301 301 301 302 301 302 303 303 303 302 302 300 300 300 299 299 299 299 298 298 298 297
304 303 303 302 301 301 300 300 300 300 299 299 299 299 300 299 300 300 299 299 299 300 299 300 300 300 301 300 301 301 301 300 300 300 299 298 298 298 298 298 298 298
302 301 300 300 300 299 299 299 298 298 298 297 297 298 298 298 298 298 298 298 298 298 298 299 299 300 296 294 295 299 300 300 300 299 299 298 298 297 298 298 298 298
300 300 299 299 299 299 298 297 297 297 297 296 296 296 296 297 297 297 297 297 297 296 297 298 299 299 294 295 295 295 296 296 297 297 297 297 297 297 296 297 297 297
299 299 298 298 297 297 296 296 296 295 295 296 296 295 295 296 295 296 296 296 297 296 296 296 297 295 295 295 294 294 293 294 295 295 295 296 296 296 297 297 297 297
298 297 296 296 296 295 294 294 293 292 294 294 294 295 295 295 294 295 295 295 296 295 295 296 296 294 294 294 294 294 294 293 294 294 294 294 295 295 295 296 296 296
295 293 294 295 293 292 293 292 292 292 293 294 292 293 294 293 293 293 294 294 295 294 295 295 295 293 294 293 293 293 293 293 293 293 293 294 294 294 294 295 295 295
294 293 293 292 291 290 290 290 291 290 291 290 290 292 292 290 291 290 293 292 293 293 293 293 293 293 293 293 293 293 293 292 292 293 293 293 293 294 294 294 294 295
292 292 292 292 290 289 289 289 290 289 289 290 290 291 291 290 290 291 289 289 291 292 291 291 293 292 292 292 292 292 293 291 291 291 291 292 292 293 293 294 294 294
290 290 289 288 288 287 287 288 288 288 289 289 289 289 290 290 289 289 289 289 288 289 290 290 291 291 291 291 291 292 291 289 289 289 290 290 291 292 292 293 293 293
288 288 287 286 286 286 286 287 287 287 288 288 288 288 288 288 289 289 289 289 288 289 290 289 289 289 290 290 291 291 290 288 288 288 288 289 289 290 291 292 292 289
287 286 286 285 285 285 286 285 286 287 287 287 287 287 287 288 288 288 289 288 288 288 287 288 288 287 289 290 290 290 289 287 288 288 287 288 288 289 290 291 291 290
286 285 285 285 284 285 285 285 286 287 286 286 286 287 288 289 289 287 287 287 287 287 287 289 288 288 288 289 290 290 290 288 288 287 287 287 288 288 288 288 289 290
Wind_Speed
9 8 9 9 9 8 8 9 9 10 8 6 6 6 6 6 6 7 7 7 7 7 7 8 8 8 7 7 7 7 8 9 5 4 8 10 10 11 11 12 11 10
10 9 7 7 7 7 7 8 9 8 7 6 6 5 5 5 5 6 6 6 7 7 7 7 7 8 7 6 7 8 7 8 7 5 7 10 9 10 11 11 11 10
9 9 8 8 7 8 8 7 7 6 6 5 5 5 4 3 4 4 5 6 7 7 7 7 8 8 8 7 7 6 7 8 9 7 9 10 9 9 10 10 10 11
9 8 8 8 8 7 7 7 6 5 5 5 5 4 4 4 5 6 6 7 7 7 7 8 8 7 7 7 6 6 6 7 7 6 7 8 8 9 10 8 9 9
8 8 7 7 7 7 6 6 6 6 6 6 5 6 6 7 7 7 7 7 7 7 7 8 8 8 6 5 6 6 7 6 6 6 7 7 7 7 7 7 8 10
7 7 8 7 7 7 6 6 6 6 6 6 7 6 6 6 6 6 6 7 6 7 7 7 7 7 6 5 5 6 6 6 7 7 8 8 7 7 6 7 8 10
7 7 8 7 7 7 6 6 5 5 5 5 4 5 4 5 5 6 6 6 7 7 7 7 7 7 7 5 6 7 6 7 8 8 8 7 5 6 6 7 9 10
7 6 7 6 7 6 6 5 5 5 5 4 5 5 5 6 6 5 5 6 6 7 7 7 8 9 8 7 7 6 7 6 7 6 8 8 7 9 7 7 7 9
6 6 6 7 7 6 7 6 6 5 5 5 5 5 5 5 5 5 5 6 6 6 7 8 8 8 7 7 7 7 7 7 7 6 7 7 8 9 8 7 8 10
6 6 6 6 7 6 7 6 5 5 5 5 5 4 4 4 4 5 6 6 7 6 7 7 8 7 7 7 8 7 7 7 6 7 8 8 9 9 8 7 9 9
6 5 5 6 6 4 6 6 5 5 5 5 5 5 5 4 4 3 5 7 6 7 7 7 7 7 7 7 7 6 7 7 7 7 8 8 9 9 8 9 9 10
5 5 5 5 5 5 5 5 5 5 5 4 5 5 4 4 5 3 4 6 6 7 7 7 6 6 6 7 7 7 7 7 7 7 7 7 8 9 9 9 10 10
5 5 4 5 5 5 4 4 4 4 4 5 4 4 4 3 2 4 4 5 6 6 6 6 6 6 7 7 7 7 7 6 7 7 7 7 7 7 8 9 10 10
5 4 4 4 4 4 4 4 4 4 4 3 2 3 3 3 4 5 4 4 5 5 5 5 5 5 6 6 6 6 6 6 6 7 7 7 7 8 8 9 10 10
4 3 3 4 4 4 4 3 3 3 2 2 2 2 3 3 4 4 4 4 4 5 5 4 5 5 4 5 6 6 7 6 7 7 7 8 8 8 8 9 9 10
4 3 3 3 3 3 2 2 2 2 2 2 2 2 3 3 3 3 4 5 5 5 5 5 5 5 6 8 6 5 5 5 5 6 6 7 8 8 9 9 9 9
3 3 3 3 3 2 2 2 2 2 2 2 2 3 3 3 3 3 4 4 5 5 5 5 5 5 8 8 9 10 8 7 7 7 6 7 8 8 9 9 9 9
3 3 3 3 3 2 2 1 1 1 2 2 2 2 3 3 3 4 4 4 4 4 5 5 5 6 7 8 9 10 9 7 7 7 7 7 8 9 9 9 9 9
3 3 3 3 3 2 2 2 1 1 1 2 2 2 1 2 3 3 3 3 4 4 5 5 5 7 9 9 9 10 11 10 7 7 7 8 8 9 9 9 9 9
4 3 4 4 3 2 1 1 0 0 0 0 0 0 1 2 2 3 3 3 4 4 5 5 5 6 8 8 8 9 10 9 7 7 8 9 9 9 9 9 9 10
5 4 5 4 2 1 1 1 1 1 1 1 1 1 2 1 2 3 4 4 4 4 5 6 5 5 6 8 8 8 9 8 7 7 7 8 9 9 10 10 10 10
5 4 4 4 4 2 2 2 2 1 1 1 1 1 1 1 2 2 3 4 5 5 6 8 6 6 7 8 9 9 9 5 6 7 8 9 9 9 9 9 9 10
5 5 4 3 3 3 3 3 3 2 1 1 1 2 2 3 3 3 3 3 4 4 6 8 7 7 7 8 8 9 7 4 4 5 7 9 10 8 8 9 9 9
5 4 3 3 3 3 3 2 2 2 2 1 2 2 3 3 3 3 3 3 4 4 6 6 7 7 8 7 7 8 7 5 4 5 7 7 9 9 8 9 10 14
5 4 4 3 3 2 2 3 3 2 2 2 2 3 3 3 3 3 3 3 4 4 7 8 7 7 8 9 9 9 7 4 4 5 7 7 7 8 7 7 8 9
4 4 4 3 3 3 2 2 2 2 2 3 3 3 3 3 3 3 5 6 5 5 5 6 7 7 5 10 9 9 9 5 4 5 7 8 7 7 8 7 8 8
Wind_Direction
203 203 205 209 216 217 217 218 219 221 214 205 209 210 213 209 203 201 207 211 218 222 224 224 219 205 196 209 226 233 242 248 226 193 211 218 223 222 228 228 227 229
202 205 205 207 212 215 218 221 221 216 208 208 212 217 215 212 202 199 207 215 220 224 225 229 231 236 235 225 234 237 236 238 240 221 226 222 228 226 232 231 231 231
197 199 204 204 208 211 211 211 212 210 209 211 211 214 218 202 197 196 211 219 224 224 224 226 229 231 237 244 245 237 236 236 235 210 213 224 224 224 229 228 228 225
198 198 202 208 210 210 210 208 204 204 203 206 205 199 197 188 199 211 214 212 222 226 225 224 224 222 224 223 221 231 232 232 228 212 217 223 222 220 226 224 228 232
194 196 205 208 209 206 206 209 205 202 203 206 204 199 198 206 209 214 215 209 212 222 224 226 224 231 235 217 205 225 231 238 224 216 219 225 218 214 224 225 231 237
193 198 202 204 204 202 207 208 210 205 206 209 211 206 210 208 215 217 216 215 214 216 223 226 231 231 232 216 214 212 222 231 226 217 224 226 223 214 218 215 225 233
190 192 198 200 201 205 206 209 208 207 209 214 208 216 201 203 217 224 228 226 223 221 222 226 226 237 237 219 217 220 221 228 230 217 223 228 222 228 221 218 225 233
191 188 196 196 199 200 204 205 201 200 200 200 208 212 207 216 220 220 227 233 232 236 234 232 237 241 242 235 227 216 219 220 231 220 223 227 218 230 226 223 222 232
192 192 188 195 194 200 201 202 198 202 198 201 205 212 216 222 224 226 235 235 238 240 244 245 243 241 239 240 239 225 215 220 224 222 224 229 229 232 229 222 228 232
193 194 191 193 197 201 200 198 194 193 194 202 207 212 219 225 220 237 241 244 247 243 244 246 247 246 241 240 245 245 233 218 213 222 228 232 234 236 232 225 231 236
192 192 197 204 206 208 203 195 193 189 192 201 202 211 219 228 233 227 244 249 245 242 243 244 247 251 257 252 246 243 251 247 227 218 222 228 235 238 234 230 231 234
191 192 201 203 204 210 206 196 191 189 190 195 204 212 217 221 227 228 231 241 246 246 247 249 251 247 246 253 258 253 243 245 248 236 230 225 228 232 235 233 235 237
192 192 195 198 199 204 200 196 190 185 186 198 200 206 210 226 225 228 233 239 246 249 252 254 251 248 249 245 244 248 250 244 242 243 240 238 235 232 233 236 238 240
192 189 183 189 189 186 186 186 185 181 185 187 181 198 200 211 230 230 229 230 242 248 251 252 253 252 252 250 249 245 243 242 245 247 247 244 245 243 239 241 240 240
163 149 159 162 168 177 177 180 173 171 161 166 178 199 211 213 224 234 238 242 243 244 243 244 250 250 244 240 242 247 249 247 246 247 245 245 244 245 245 243 244 243
135 138 161 164 163 164 161 158 166 157 157 167 194 205 206 210 214 224 232 240 246 246 243 238 236 236 226 230 244 251 256 260 258 248 248 251 254 254 252 250 250 246
146 143 143 150 144 136 138 146 152 145 156 181 191 201 207 216 229 231 234 236 235 240 242 239 240 234 220 215 215 230 243 256 259 261 259 255 253 252 254 253 248 244
113 114 123 117 114 121 123 123 113 138 173 189 204 214 218 218 227 231 237 240 238 245 249 246 246 242 227 218 216 222 225 237 251 254 250 252 254 254 257 256 256 253
80 86 83 76 70 65 75 75 116 163 205 215 231 235 230 224 234 241 241 243 244 249 253 248 250 232 224 225 223 225 228 227 247 248 250 253 255 255 257 258 261 262
63 63 58 57 51 41 44 51 74 292 278 284 291 265 240 253 259 253 256 254 251 257 263 262 257 245 232 234 233 234 235 233 248 251 255 255 255 256 257 258 257 261
50 49 51 57 55 48 37 25 11 355 355 306 273 258 253 250 248 248 248 255 267 270 274 274 269 266 257 259 257 249 249 244 253 255 257 258 258 256 257 257 260 259
44 49 52 52 40 30 26 10 12 352 336 323 307 293 282 276 274 266 264 256 255 263 270 273 272 247 239 248 259 260 252 245 250 255 257 258 257 256 256 258 259 260
40 40 39 32 28 24 16 6 357 340 329 324 299 279 272 260 259 254 246 247 245 242 255 268 273 273 263 251 253 264 267 260 257 259 260 261 263 263 263 262 260 260
39 35 37 27 26 19 3 353 339 315 306 320 302 292 279 273 276 274 262 253 251 257 256 271 276 276 278 275 268 266 260 265 267 268 267 266 271 265 264 263 258 254
41 31 28 21 17 1 351 327 312 321 327 319 298 285 276 268 262 271 274 273 262 260 260 261 275 281 279 279 272 267 261 255 261 268 270 267 270 274 265 263 267 256
32 33 17 18 5 346 334 329 318 330 340 327 311 293 292 300 301 296 294 286 283 276 270 258 274 282 281 282 279 270 257 249 256 264 268 275 275 277 284 274 268 271